FW4655 Weather Reports


Display with metric or nautical units.
time (UTC)temp
F
wind
direction
speed
MPH
gust
MPH
rain 1hr
in
rain 24hr
in
rain mn
in
humidity
%
barometer
mb
20260901034513 72 276 0.0 0.0 0.00 0.00 0.00 56 1008.1
20260901034009 73 275 0.0 0.0 0.00 0.00 0.00 54 1008.1
20260901033508 74 275 0.0 0.0 0.00 0.00 0.00 54 1008.0
20260901033012 74 275 0.0 1.0 0.00 0.00 0.00 53 1008.0
20260901032508 75 275 0.0 1.0 0.00 0.00 0.00 52 1007.9
20260901032010 75 276 0.0 1.0 0.00 0.00 0.00 51 1007.9
20260901031509 76 275 0.0 0.0 0.00 0.00 0.00 50 1007.8
20260901031011 76 275 0.0 0.0 0.00 0.00 0.00 49 1007.8
20260901030509 77 275 0.0 0.0 0.00 0.00 0.00 48 1007.8
20260901030017 78 276 0.0 1.0 0.00 0.00 0.00 47 1007.8
20260901025509 78 275 0.0 3.0 0.00 0.00 0.00 47 1007.8
20260901025011 79 228 0.0 3.0 0.00 0.00 0.00 46 1007.9
20260901024513 79 288 0.0 3.0 0.00 0.00 0.00 46 1007.8
20260901024009 79 288 0.0 7.0 0.00 0.00 0.00 45 1007.9
20260901023510 80 281 1.0 7.0 0.00 0.00 0.00 44 1007.8
20260901023012 80 280 2.0 5.0 0.00 0.00 0.00 43 1007.7
20260901022509 80 218 1.0 6.0 0.00 0.00 0.00 42 1007.7
20260901022014 81 304 2.0 6.0 0.00 0.00 0.00 42 1007.7
20260901021512 81 294 2.0 5.0 0.00 0.00 0.00 41 1007.6
20260901021008 82 297 2.0 5.0 0.00 0.00 0.00 41 1007.6
20260901020513 82 322 2.0 5.0 0.00 0.00 0.00 41 1007.5
20260901020036 82 316 2.0 5.0 0.00 0.00 0.00 40 1007.6
20260901015511 82 288 2.0 8.0 0.00 0.00 0.00 40 1007.5
20260901015009 83 302 4.0 8.0 0.00 0.00 0.00 40 1007.4
20260901014516 83 322 3.0 7.0 0.00 0.00 0.00 40 1007.4
20260901014008 83 304 3.0 7.0 0.00 0.00 0.00 40 1007.4
20260901013510 84 276 1.0 5.0 0.00 0.00 0.00 40 1007.4
20260901013016 83 317 2.0 7.0 0.00 0.00 0.00 40 1007.4
20260901012513 83 321 2.0 8.0 0.00 0.00 0.00 41 1007.5
20260901012014 83 309 2.0 8.0 0.00 0.00 0.00 41 1007.5
20260901011529 83 287 3.0 8.0 0.00 0.00 0.00 41 1007.6
20260901011009 84 314 4.0 6.0 0.00 0.00 0.00 40 1007.6
20260901010512 84 290 2.0 9.0 0.00 0.00 0.00 41 1007.5
20260901010018 84 290 4.0 9.0 0.00 0.00 0.00 40 1007.5
20260901005512 84 231 4.0 9.0 0.00 0.00 0.00 40 1007.5
20260901005013 85 328 3.0 9.0 0.00 0.00 0.00 40 1007.5
20260901004522 85 285 4.0 8.0 0.00 0.00 0.00 40 1007.5
20260901004010 85 304 3.0 6.0 0.00 0.00 0.00 40 1007.6
20260901003516 86 194 1.0 7.0 0.00 0.00 0.00 40 1007.6
20260901003018 85 302 3.0 7.0 0.00 0.00 0.00 40 1007.6
20260901002511 86 264 3.0 7.0 0.00 0.00 0.00 40 1007.6
20260901002014 86 249 2.0 7.0 0.00 0.00 0.00 39 1007.6
20260901001510 86 291 2.0 7.0 0.00 0.00 0.00 39 1007.6
20260901001007 86 323 1.0 6.0 0.00 0.00 0.00 37 1007.6
20260901000506 86 289 1.0 6.0 0.00 0.00 0.00 36 1007.7
20260901000011 86 358 3.0 6.0 0.00 0.00 0.00 36 1007.7
20260831235507 87 317 2.0 6.0 0.00 0.00 0.00 35 1007.7
20260831235007 87 72 1.0 6.0 0.00 0.00 0.00 35 1007.7
20260831234510 86 48 3.0 6.0 0.00 0.00 0.00 35 1007.7
20260831234010 87 276 2.0 5.0 0.00 0.00 0.00 36 1007.7
20260831233508 86 72 1.0 6.0 0.00 0.00 0.00 36 1007.8
20260831233007 86 235 3.0 6.0 0.00 0.00 0.00 36 1007.9
20260831232504 86 61 2.0 6.0 0.00 0.00 0.00 35 1007.9
20260831232003 86 310 1.0 6.0 0.00 0.00 0.00 35 1007.9
20260831231507 86 300 2.0 6.0 0.00 0.00 0.00 36 1007.8
20260831231007 86 39 2.0 6.0 0.00 0.00 0.00 36 1007.9
20260831230509 86 266 3.0 6.0 0.00 0.00 0.00 35 1007.9
20260831230012 86 46 3.0 6.0 0.00 0.00 0.00 36 1008.0
20260831225511 86 310 2.0 7.0 0.00 0.00 0.00 37 1008.0
20260831225009 85 299 2.0 7.0 0.00 0.00 0.00 37 1008.1
20260831224512 86 304 1.0 7.0 0.00 0.00 0.00 37 1008.1
20260831224007 85 44 3.0 7.0 0.00 0.00 0.00 37 1008.2
20260831223508 85 43 4.0 7.0 0.00 0.00 0.00 37 1008.2
20260831223014 85 345 2.0 7.0 0.00 0.00 0.00 38 1008.2
20260831222511 85 285 2.0 5.0 0.00 0.00 0.00 38 1008.2
20260831222011 85 219 2.0 4.0 0.00 0.00 0.00 38 1008.3
20260831221527 84 335 1.0 4.0 0.00 0.00 0.00 38 1008.4
20260831221004 84 318 2.0 5.0 0.00 0.00 0.00 39 1008.5
20260831220507 83 291 1.0 5.0 0.00 0.00 0.00 39 1008.5
20260831220008 83 20 2.0 6.0 0.00 0.00 0.00 40 1008.6
20260831215511 83 6 3.0 8.0 0.00 0.00 0.00 40 1008.6
20260831215007 83 49 4.0 8.0 0.00 0.00 0.00 41 1008.7
20260831214517 82 88 3.0 7.0 0.00 0.00 0.00 41 1008.7
20260831214013 82 41 3.0 6.0 0.00 0.00 0.00 41 1008.8
20260831213514 83 77 3.0 6.0 0.00 0.00 0.00 41 1008.8
20260831213029 83 160 1.0 6.0 0.00 0.00 0.00 41 1008.9
20260831212512 82 42 3.0 6.0 0.00 0.00 0.00 42 1008.9
20260831212009 82 31 2.0 7.0 0.00 0.00 0.00 43 1008.9
20260831211519 82 102 3.0 7.0 0.00 0.00 0.00 42 1009.0
20260831211012 82 338 3.0 6.0 0.00 0.00 0.00 42 1009.1
20260831210512 81 48 4.0 7.0 0.00 0.00 0.00 43 1009.1
20260831210021 81 49 2.0 7.0 0.00 0.00 0.00 43 1009.1
20260831205510 82 60 3.0 6.0 0.00 0.00 0.00 42 1009.1
20260831205004 81 41 2.0 4.0 0.00 0.00 0.00 43 1009.1
20260831204513 80 181 1.0 8.0 0.00 0.00 0.00 44 1009.2
20260831204006 80 101 3.0 8.0 0.00 0.00 0.00 43 1009.3
20260831203508 80 60 1.0 5.0 0.00 0.00 0.00 44 1009.3
20260831203016 79 323 1.0 9.0 0.00 0.00 0.00 45 1009.3
20260831202509 79 36 3.0 9.0 0.00 0.00 0.00 45 1009.4
20260831202009 79 81 2.0 6.0 0.00 0.00 0.00 45 1009.4
20260831201521 79 77 4.0 6.0 0.00 0.00 0.00 46 1009.5
20260831201020 79 103 2.0 7.0 0.00 0.00 0.00 46 1009.6
20260831200512 77 84 2.0 7.0 0.00 0.00 0.00 47 1009.7
20260831200029 78 54 3.0 6.0 0.00 0.00 0.00 47 1009.7
20260831195516 77 214 2.0 5.0 0.00 0.00 0.00 48 1009.9
20260831195016 77 104 2.0 5.0 0.00 0.00 0.00 49 1010.0
20260831194535 77 82 3.0 5.0 0.00 0.00 0.00 49 1010.0
20260831194016 76 39 2.0 7.0 0.00 0.00 0.00 50 1010.0
20260831193521 76 76 2.0 7.0 0.00 0.00 0.00 50 1010.1
20260831193009 76 15 2.0 5.0 0.00 0.00 0.00 50 1010.1
20260831192510 76 72 3.0 5.0 0.00 0.00 0.00 49 1010.2
20260831192011 76 91 2.0 6.0 0.00 0.00 0.00 52 1010.3
20260831191514 75 98 2.0 6.0 0.00 0.00 0.00 51 1010.3
20260831191010 74 81 3.0 6.0 0.00 0.00 0.00 52 1010.4
20260831190513 74 103 2.0 6.0 0.00 0.00 0.00 52 1010.6
20260831190026 74 32 3.0 6.0 0.00 0.00 0.00 52 1010.7
20260831185514 74 86 2.0 5.0 0.00 0.00 0.00 52 1010.8
20260831185013 73 72 1.0 5.0 0.00 0.00 0.00 54 1010.9
20260831184534 72 93 2.0 7.0 0.00 0.00 0.00 54 1010.9
20260831184015 73 86 4.0 7.0 0.00 0.00 0.00 54 1010.9
20260831183514 73 100 0.0 5.0 0.00 0.00 0.00 54 1011.0
20260831183024 72 68 3.0 4.0 0.00 0.00 0.00 54 1011.1
20260831182516 72 91 2.0 4.0 0.00 0.00 0.00 56 1011.2
20260831182013 71 283 0.0 6.0 0.00 0.00 0.00 57 1011.2
20260831181528 71 34 1.0 6.0 0.00 0.00 0.00 57 1011.3
20260831181011 71 103 2.0 5.0 0.00 0.00 0.00 57 1011.5
20260831180512 70 314 2.0 5.0 0.00 0.00 0.00 59 1011.6
20260831180018 70 9 3.0 5.0 0.00 0.00 0.00 59 1011.6
20260831175511 70 32 2.0 5.0 0.00 0.00 0.00 57 1011.7
20260831175011 69 62 1.0 6.0 0.00 0.00 0.00 59 1011.7
20260831174527 69 110 1.0 6.0 0.00 0.00 0.00 60 1011.7
20260831174012 68 72 3.0 6.0 0.00 0.00 0.00 61 1011.7
20260831173516 68 56 2.0 5.0 0.00 0.00 0.00 61 1011.7
20260831173036 67 79 3.0 5.0 0.00 0.00 0.00 62 1011.8
20260831172516 67 49 1.0 4.0 0.00 0.00 0.00 63 1011.8
20260831172013 67 51 2.0 4.0 0.00 0.00 0.00 63 1011.9
20260831171530 66 104 2.0 5.0 0.00 0.00 0.00 63 1011.9
20260831171016 66 60 1.0 5.0 0.00 0.00 0.00 65 1011.9
20260831170516 65 85 0.0 5.0 0.00 0.00 0.00 66 1012.0
20260831170028 65 89 2.0 5.0 0.00 0.00 0.00 66 1012.1
20260831165519 65 106 3.0 5.0 0.00 0.00 0.00 66 1012.1
20260831165010 65 94 2.0 6.0 0.00 0.00 0.00 67 1012.1
20260831164521 64 90 1.0 6.0 0.00 0.00 0.00 68 1012.1
20260831164015 64 124 1.0 5.0 0.00 0.00 0.00 69 1012.1
20260831163514 64 65 1.0 5.0 0.00 0.00 0.00 69 1012.1
20260831163028 63 135 0.0 4.0 0.00 0.00 0.00 70 1012.2
20260831162518 63 105 2.0 6.0 0.00 0.00 0.00 71 1012.3
20260831162017 63 76 1.0 6.0 0.00 0.00 0.00 72 1012.3
20260831161528 62 23 2.0 3.0 0.00 0.00 0.00 73 1012.4
20260831161020 62 79 1.0 5.0 0.00 0.00 0.00 74 1012.5
20260831160520 61 101 3.0 6.0 0.00 0.00 0.00 74 1012.5
20260831160032 61 77 3.0 6.0 0.00 0.00 0.00 75 1012.5
20260831155519 60 113 2.0 5.0 0.00 0.00 0.00 76 1012.6
20260831155018 60 74 3.0 6.0 0.00 0.00 0.00 76 1012.6
20260831154553 60 98 3.0 7.0 0.00 0.00 0.00 77 1012.5
20260831154019 60 65 2.0 7.0 0.00 0.00 0.00 78 1012.5
20260831153521 59 53 2.0 7.0 0.00 0.00 0.00 78 1012.5
20260831153030 59 65 2.0 6.0 0.00 0.00 0.00 79 1012.6
20260831152513 59 338 3.0 8.0 0.00 0.00 0.00 79 1012.7
20260831152017 58 55 3.0 8.0 0.00 0.00 0.00 80 1012.8
20260831151505 58 85 2.0 6.0 0.00 0.00 0.00 81 1012.9
20260831151005 58 117 3.0 6.0 0.00 0.00 0.00 82 1013.0
20260831150506 57 57 1.0 3.0 0.00 0.00 0.00 83 1013.0
20260831150013 57 102 1.0 4.0 0.00 0.00 0.00 84 1012.9
20260831145509 56 78 0.0 4.0 0.00 0.00 0.00 86 1012.9
20260831145008 55 92 0.0 1.0 0.00 0.00 0.00 87 1012.9
20260831144522 55 144 0.0 0.0 0.00 0.00 0.00 88 1012.9
20260831144010 54 144 0.0 0.0 0.00 0.00 0.00 89 1013.0
20260831143508 54 144 0.0 0.0 0.00 0.00 0.00 90 1013.0
20260831143021 53 144 0.0 0.0 0.00 0.00 0.00 90 1012.9
20260831142511 53 144 0.0 1.0 0.00 0.00 0.00 90 1012.9
20260831142007 52 144 0.0 1.0 0.00 0.00 0.00 90 1012.9
20260831141504 52 144 0.0 0.0 0.00 0.00 0.00 90 1012.9
20260831141002 52 144 0.0 0.0 0.00 0.00 0.00 90 1012.9
20260831140504 52 144 0.0 0.0 0.00 0.00 0.00 89 1012.9
20260831140007 52 144 0.0 0.0 0.00 0.00 0.00 89 1012.9
20260831135505 52 144 0.0 0.0 0.00 0.00 0.00 89 1013.0
20260831135007 51 144 0.0 0.0 0.00 0.00 0.00 89 1013.0
20260831134507 51 144 0.0 0.0 0.00 0.00 0.00 89 1013.0
20260831134005 51 144 0.0 0.0 0.00 0.00 0.00 89 1012.9
20260831133509 51 144 0.0 0.0 0.00 0.00 0.00 89 1012.9
20260831133014 52 144 0.0 0.0 0.00 0.00 0.00 88 1012.9
20260831132510 52 144 0.0 0.0 0.00 0.00 0.00 88 1012.9
20260831132012 52 144 0.0 0.0 0.00 0.00 0.00 89 1012.9
20260831131520 52 144 0.0 0.0 0.00 0.00 0.00 88 1013.0
20260831131013 52 144 0.0 0.0 0.00 0.00 0.00 88 1013.0
20260831130516 52 144 0.0 0.0 0.00 0.00 0.00 87 1013.1
20260831130004 53 144 0.0 0.0 0.00 0.00 0.00 88 1013.1
20260831125506 53 144 0.0 0.0 0.00 0.00 0.00 88 1013.1
20260831125004 53 144 0.0 0.0 0.00 0.00 0.00 88 1013.1
20260831124509 53 143 0.0 0.0 0.00 0.00 0.00 88 1013.2
20260831124007 53 143 0.0 0.0 0.00 0.00 0.00 88 1013.2
20260831123508 53 143 0.0 0.0 0.00 0.00 0.00 88 1013.3
20260831123009 53 143 0.0 0.0 0.00 0.00 0.00 88 1013.2
20260831122507 53 143 0.0 0.0 0.00 0.00 0.00 88 1013.3
20260831122008 53 143 0.0 0.0 0.00 0.00 0.00 87 1013.3
20260831121528 53 143 0.0 0.0 0.00 0.00 0.00 87 1013.4
20260831121012 53 143 0.0 0.0 0.00 0.00 0.00 87 1013.5
20260831120518 53 143 0.0 0.0 0.00 0.00 0.00 87 1013.5
20260831120025 53 142 0.0 0.0 0.00 0.00 0.00 87 1013.5
20260831115514 53 143 0.0 0.0 0.00 0.00 0.00 87 1013.4
20260831115014 53 143 0.0 0.0 0.00 0.00 0.00 87 1013.5
20260831114530 53 143 0.0 0.0 0.00 0.00 0.00 86 1013.6
20260831114004 54 143 0.0 0.0 0.00 0.00 0.00 86 1013.6
20260831113504 54 143 0.0 0.0 0.00 0.00 0.00 86 1013.6
20260831113008 54 143 0.0 0.0 0.00 0.00 0.00 86 1013.6
20260831112506 54 143 0.0 0.0 0.00 0.00 0.00 86 1013.7
20260831112006 54 143 0.0 0.0 0.00 0.00 0.00 86 1013.7
20260831111511 54 143 0.0 0.0 0.00 0.00 0.00 86 1013.7
20260831111008 54 143 0.0 0.0 0.00 0.00 0.00 86 1013.8
20260831110510 55 143 0.0 0.0 0.00 0.00 0.00 86 1013.8
20260831110020 55 143 0.0 0.0 0.00 0.00 0.00 85 1013.8
20260831105510 55 143 0.0 0.0 0.00 0.00 0.00 86 1013.8
20260831105016 55 143 0.0 0.0 0.00 0.00 0.00 86 1013.9
20260831104524 55 150 0.0 0.0 0.00 0.00 0.00 86 1013.9
20260831104016 55 150 0.0 0.0 0.00 0.00 0.00 86 1013.9
20260831103516 55 150 0.0 0.0 0.00 0.00 0.00 86 1013.9
20260831103029 55 150 0.0 0.0 0.00 0.00 0.00 86 1014.0
20260831102514 55 150 0.0 0.0 0.00 0.00 0.00 86 1014.0
20260831102019 55 150 0.0 0.0 0.00 0.00 0.00 86 1014.0
20260831101511 55 150 0.0 0.0 0.00 0.00 0.00 85 1014.0
20260831101008 55 150 0.0 0.0 0.00 0.00 0.00 85 1014.0
20260831100507 55 150 0.0 0.0 0.00 0.00 0.00 86 1014.1
20260831100015 55 150 0.0 0.0 0.00 0.00 0.00 85 1014.1
20260831095512 55 150 0.0 0.0 0.00 0.00 0.00 85 1014.2
20260831095012 56 150 0.0 0.0 0.00 0.00 0.00 84 1014.2
20260831094523 56 150 0.0 0.0 0.00 0.00 0.00 84 1014.2
20260831094012 56 150 0.0 0.0 0.00 0.00 0.00 85 1014.3
20260831093514 56 150 0.0 0.0 0.00 0.00 0.00 84 1014.4
20260831093028 56 150 0.0 0.0 0.00 0.00 0.00 84 1014.4
20260831092515 56 150 0.0 0.0 0.00 0.00 0.00 84 1014.5
20260831092022 56 150 0.0 0.0 0.00 0.00 0.00 85 1014.5
20260831091530 56 150 0.0 0.0 0.00 0.00 0.00 84 1014.6
20260831091014 57 150 0.0 0.0 0.00 0.00 0.00 84 1014.6
20260831090516 56 150 0.0 1.0 0.00 0.00 0.00 84 1014.6
20260831090031 56 150 0.0 1.0 0.00 0.00 0.00 84 1014.6
20260831085509 56 150 0.0 0.0 0.00 0.00 0.00 83 1014.6
20260831085008 57 150 0.0 0.0 0.00 0.00 0.00 84 1014.7
20260831084528 56 150 0.0 0.0 0.00 0.00 0.00 83 1014.7
20260831084010 56 150 0.0 0.0 0.00 0.00 0.00 83 1014.8
20260831083513 57 150 0.0 0.0 0.00 0.00 0.00 82 1014.9
20260831083024 57 150 0.0 0.0 0.00 0.00 0.00 83 1014.9
20260831082514 57 150 0.0 0.0 0.00 0.00 0.00 82 1015.0
20260831082013 57 150 0.0 0.0 0.00 0.00 0.00 81 1015.1
20260831081528 58 150 0.0 0.0 0.00 0.00 0.00 81 1015.1
20260831081017 58 150 0.0 0.0 0.00 0.00 0.00 81 1015.1
20260831080517 58 150 0.0 0.0 0.00 0.00 0.00 80 1015.2
20260831080029 58 150 0.0 0.0 0.00 0.00 0.00 79 1015.2
20260831075514 59 150 0.0 0.0 0.00 0.00 0.00 79 1015.2
20260831075017 59 150 0.0 0.0 0.00 0.00 0.00 79 1015.3
20260831074540 59 150 0.0 0.0 0.00 0.00 0.00 78 1015.2
20260831074020 59 150 0.0 0.0 0.00 0.00 0.00 78 1015.3
20260831073512 60 150 0.0 0.0 0.00 0.00 0.00 78 1015.3
20260831073047 60 150 0.0 0.0 0.00 0.00 0.00 77 1015.4
20260831072515 60 150 0.0 0.0 0.00 0.00 0.00 77 1015.5
20260831072011 60 150 0.0 1.0 0.00 0.00 0.00 77 1015.5
20260831071525 61 150 0.0 1.0 0.00 0.00 0.00 77 1015.5
20260831071017 60 143 0.0 0.0 0.00 0.00 0.00 76 1015.5
20260831070514 60 143 0.0 0.0 0.00 0.00 0.00 76 1015.6
20260831070032 61 143 0.0 0.0 0.00 0.00 0.00 76 1015.7
20260831065522 61 143 0.0 1.0 0.00 0.00 0.00 75 1015.7
20260831065017 62 143 0.0 1.0 0.00 0.00 0.00 74 1015.7
20260831064538 62 143 0.0 1.0 0.00 0.00 0.00 74 1015.8
20260831064019 62 146 0.0 1.0 0.00 0.00 0.00 74 1015.7
20260831063520 62 146 0.0 1.0 0.00 0.00 0.00 74 1015.8
20260831063030 62 162 0.0 1.0 0.00 0.00 0.00 73 1015.8
20260831062519 63 96 0.0 1.0 0.00 0.00 0.00 73 1015.9
20260831062017 63 96 0.0 3.0 0.00 0.00 0.00 73 1015.9
20260831061520 63 77 0.0 3.0 0.00 0.00 0.00 73 1015.9
20260831061013 63 123 0.0 3.0 0.00 0.00 0.00 73 1015.9
20260831060515 63 128 0.0 3.0 0.00 0.00 0.00 72 1016.0
20260831060025 64 98 0.0 3.0 0.00 0.00 0.00 72 1016.1
20260831055504 64 110 0.0 5.0 0.00 0.00 0.00 72 1016.2
20260831055004 64 79 2.0 5.0 0.00 0.00 0.00 72 1016.2
20260831054507 64 77 0.0 5.0 0.00 0.00 0.00 72 1016.2
20260831054004 64 100 0.0 5.0 0.00 0.00 0.00 72 1016.3
20260831053506 64 53 0.0 4.0 0.00 0.00 0.00 72 1016.3
20260831053018 64 39 0.0 5.0 0.00 0.00 0.00 71 1016.3
20260831052511 64 27 0.0 5.0 0.00 0.00 0.00 71 1016.4
20260831052010 64 86 2.0 6.0 0.00 0.00 0.00 71 1016.4
20260831051516 64 25 0.0 6.0 0.00 0.00 0.00 70 1016.4
20260831051011 65 63 1.0 4.0 0.00 0.00 0.00 70 1016.4
20260831050518 65 352 0.0 5.0 0.00 0.00 0.00 69 1016.5
20260831050037 65 94 0.0 5.0 0.00 0.00 0.00 69 1016.5
20260831045513 65 146 2.0 5.0 0.00 0.00 0.00 69 1016.5
20260831045014 65 74 0.0 4.0 0.00 0.00 0.00 69 1016.6
20260831044527 65 33 0.0 3.0 0.00 0.00 0.00 69 1016.6
20260831044020 65 99 2.0 3.0 0.00 0.00 0.00 69 1016.6
20260831043505 65 58 0.0 2.0 0.00 0.00 0.00 68 1016.7
20260831043009 65 51 1.0 6.0 0.00 0.00 0.00 68 1016.7
20260831042506 66 82 0.0 6.0 0.00 0.00 0.00 67 1016.7
20260831042007 66 40 1.0 6.0 0.00 0.00 0.00 67 1016.7
20260831041511 66 33 1.0 4.0 0.00 0.00 0.00 67 1016.8
20260831041009 66 45 1.0 4.0 0.00 0.00 0.00 67 1016.8
20260831040512 66 49 0.0 4.0 0.00 0.00 0.00 66 1016.7
20260831040039 66 96 1.0 4.0 0.00 0.00 0.00 66 1016.7
20260831035512 66 82 0.0 2.0 0.00 0.00 0.00 65 1016.7
20260831035012 67 77 0.0 4.0 0.00 0.00 0.00 65 1016.8